Cape Town, South Africa

8:39 AM SAST on November 18, 2017 (GMT +0200)
Cape Town

Weather History for FACT - October, 2012

Change the Weather History Date:

Monday, October 1, 2012

  Actual Average Record
Temperature  
Mean Temperature 60 °F -  
Max Temperature 71 °F 69 °F 82 °F (2004)
Min Temperature 50 °F 51 °F 44 °F (1996)
Degree Days  
Heating Degree Days 4    
Growing Degree Days 10 (Base 50)    
Moisture  
Dew Point 51 °F    
Average Humidity 72    
Maximum Humidity 88    
Minimum Humidity 45    
Precipitation  
Precipitation 0.00 in 0.00 in - ()
Sea Level Pressure  
Sea Level Pressure 30.06 in    
Wind  
Wind Speed 5 mph ()    
Max Wind Speed 14 mph    
Max Gust Speed -    
Visibility 7.8 miles    
Events      
Averages and records for this station are not official NWS values.
T = Trace of Precipitation, MM = Missing Value Source: Averaged Metar Reports

Daily Weather History Graph

Daily Weather History Graph

Search for Another Location

Airport or City:

Trip Planner

Search our weather history database for the weather conditions in past years. The results will help you decide how hot, cold, wet, or windy it might be!

Date:

Astronomy

Oct. 01, 2012 Rise Set
Actual Time 6:22 AM SAST 6:48 PM SAST
Civil Twilight 5:57 AM SAST 7:13 PM SAST
Nautical Twilight 5:27 AM SAST 7:43 PM SAST
Astronomical Twilight 4:57 AM SAST 8:13 PM SAST
Moon 8:15 PM SAST (10/1) 6:45 AM SAST (10/1)
Length of Visible Light 13h 16m
Length of Day
12h 26m
Full, 98% of the Moon is Illuminated
Oct 1
Full
Oct 8
Last Quarter
Oct 15
New
Oct 22
First Quarter
Oct 29
Full

Hourly Weather History & Observations

Time (SAST) Temp. Dew Point Humidity Pressure Visibility Wind Dir Wind Speed Gust Speed Precip Events Conditions
12:00 AM 55.4 °F 50.0 °F 82% 30.09 in 6.2 mi NNW 5.8 mph - N/A   Scattered Clouds
1:00 AM 53.6 °F 50.0 °F 88% 30.06 in 6.2 mi North 5.8 mph - N/A   Partly Cloudy
2:00 AM 53 °F 49 °F 83% 30.06 in 6 mi NNE 5.8 mph - -   Mist
2:00 AM 53.6 °F 50.0 °F 88% 30.04 in 6.2 mi NNE 4.6 mph - N/A   Partly Cloudy
3:00 AM 51.8 °F 46.4 °F 82% 30.04 in 6.2 mi Calm Calm - N/A   Partly Cloudy
4:00 AM 51.8 °F 46.4 °F 82% 30.01 in 6.2 mi Variable 1.2 mph - N/A   Scattered Clouds
5:00 AM 55 °F 52 °F 84% 30.04 in 6 mi 2.3 mph - -   Mist
5:00 AM 55.4 °F 51.8 °F 88% 30.04 in 6.2 mi Variable 3.5 mph - N/A   Mostly Cloudy
6:00 AM 55.4 °F 51.8 °F 88% 30.04 in 6.2 mi Calm Calm - N/A   Mostly Cloudy
7:00 AM 55.4 °F 51.8 °F 88% 30.06 in 6.2 mi North 4.6 mph - N/A   Partly Cloudy
8:00 AM 57 °F 53 °F 82% 30.09 in 5 mi NNE 6.9 mph - -   Mist
8:00 AM 57.2 °F 51.8 °F 82% 30.06 in 5.0 mi NNE 6.9 mph - N/A   Partly Cloudy
9:00 AM 60.8 °F 53.6 °F 77% 30.09 in 6.2 mi Variable 1.2 mph - N/A   Mostly Cloudy
10:00 AM 62.6 °F 51.8 °F 68% 30.09 in 6.2 mi NW 3.5 mph - N/A   Mostly Cloudy
11:00 AM 65 °F 53 °F 57% 30.12 in 12 mi North 3.5 mph - -   Mostly Cloudy
11:00 AM 64.4 °F 53.6 °F 68% 30.09 in 6.2 mi Variable 4.6 mph - N/A   Mostly Cloudy
12:00 PM 66.2 °F 55.4 °F 68% 30.09 in 6.2 mi ESE 5.8 mph - N/A   Mostly Cloudy
1:00 PM 68.0 °F 53.6 °F 60% 30.06 in 6.2 mi Variable 6.9 mph - N/A   Mostly Cloudy
2:00 PM 70 °F 56 °F 51% 30.06 in 19 mi ESE 5.8 mph - -   Partly Cloudy
2:00 PM 69.8 °F 55.4 °F 60% 30.04 in 6.2 mi SE 4.6 mph - N/A   Scattered Clouds
3:00 PM 69.8 °F 53.6 °F 56% 30.04 in 6.2 mi SSE 8.1 mph - N/A   Scattered Clouds
4:00 PM 69.8 °F 51.8 °F 53% 30.01 in 6.2 mi SSE 12.7 mph - N/A   Partly Cloudy
5:00 PM 67 °F 50 °F 45% 30.03 in 25 mi SSE 13.8 mph - -  
5:00 PM 66.2 °F 50.0 °F 56% 30.01 in - South 13.8 mph - N/A   Clear
6:00 PM 64.4 °F 50.0 °F 59% 30.04 in - SSE 13.8 mph - N/A   Clear
7:00 PM 62.6 °F 50.0 °F 63% 30.04 in - South 10.4 mph - N/A   Clear
8:00 PM 56 °F 48 °F 68% 30.06 in 16 mi SE 6.9 mph - -  
8:00 PM 57.2 °F 48.2 °F 72% 30.04 in - SE 5.8 mph - N/A   Clear
9:00 PM 59.0 °F 50.0 °F 72% 30.06 in - SSE 9.2 mph - N/A   Clear
10:00 PM 59.0 °F 50.0 °F 72% 30.06 in - South 6.9 mph - N/A   Clear
11:00 PM 55 °F 49 °F 73% 30.08 in 19 mi South 4.6 mph - -  
11:00 PM 55.4 °F 48.2 °F 77% 30.06 in - South 4.6 mph - N/A   Clear